User: anonymous   Login
Location: Unspecified
(43.4680°N, 87.1740°E)
Time: 01:12:59
(UTC+00:00)
Language:

SL-8 Rocket - Orbit

View from above orbital plane
View from above orbital plane
View from above satellite
View from above satellite

Ground track
Ground track

The orbit data is extracted from the following two-line orbital elements,

1 21088U 91006B   21174.78541617  .00000110  00000-0  95642-4 0  9991
2 21088  82.9423   9.1413 0022803 168.1331 202.6099 13.77168886527596
Epoch (UTC): 23 June 2021 18:50:59
Eccentricity: 0.0022803
inclination: 82.9423°
perigee height: 957 km
apogee height: 991 km
right ascension of ascending node: 9.1413°
argument of perigee: 168.1331°
revolutions per day: 13.77168886
mean anomaly at epoch: 202.6099°
orbit number at epoch: 52759

The dashed part of the orbit path shows where the satellite is in the earth's shadow,  

DLR